Independence of the Seas — C6WW4 — position and weather

sailwx.info

Track history (hours):
 
Tides and Currents Weather Stations Pressure Air Temp Water Temp Dewpoint Dewpoint Depression Visibility Wind Speed Wind Dir Waves Ship Positions

Independence of the Seas

Last reported at 2017-Jul-22 03:09 UTC. Time now 2017-Jul-22 08:47 UTC.
Position N 41°20' E 002°44'.

Length 339 m; draft 8.8 m.

Type: Passenger vessel. MMSI: 309374000.

Date/timePositionNaut miles runAvg speedWind from/ knotsBaromVisibWave heightAir tempDewpointWater temp
2017-Jul-22 03:09N 41°20' E 002°44'714.9
2017-Jul-22 02:41N 41°24' E 002°51'314.9
2017-Jul-22 02:30N 41°25' E 002°55'814.8
2017-Jul-22 01:59N 41°29' E 003°04'714.6
2017-Jul-22 01:30N 41°32' E 003°12'714.5
2017-Jul-22 01:00N 41°36' E 003°20'5014.9
2017-Jul-21 21:37N 42°06' E 004°14'514.4
2017-Jul-21 21:18N 42°08' E 004°19'414.1
2017-Jul-21 21:00N 42°11' E 004°24'714.0
2017-Jul-21 20:30N 42°15' E 004°32'713.8
2017-Jul-21 20:00N 42°19' E 004°39'1513.8
2017-Jul-21 18:55N 42°28' E 004°56'1014.0
2017-Jul-21 18:12N 42°34' E 005°06'4812.2
2017-Jul-21 14:17N 43°06' E 005°55'1 1.1
2017-Jul-21 13:16N 43°06' E 005°54'0 0.0
2017-Jul-21 09:28N 43°06' E 005°54'0 0.0
2017-Jul-21 07:16N 43°06' E 005°54'0 0.0
2017-Jul-21 05:52N 43°06' E 005°54'0 0.0
2017-Jul-21 05:25N 43°06' E 005°54'0 0.0
2017-Jul-21 05:00N 43°06' E 005°54'1 2.7
2017-Jul-21 04:31N 43°05' E 005°55'18 8.1
2017-Jul-21 02:13N 42°49' E 006°07'2 8.9
2017-Jul-21 01:57N 42°47' E 006°08'7 8.7
2017-Jul-21 01:12N 42°43' E 006°16'4 9.8
2017-Jul-21 00:49N 42°43' E 006°21'310.0
2017-Jul-21 00:31N 42°43' E 006°25'37 8.9
2017-Jul-20 20:18N 43°07' E 007°03'3 8.9
2017-Jul-20 19:59N 43°10' E 007°06'6 9.2
2017-Jul-20 19:18N 43°15' E 007°11'5 9.7
2017-Jul-20 18:50N 43°18' E 007°15'3 9.5
2017-Jul-20 18:30N 43°21' E 007°16'5 9.7
2017-Jul-20 18:00N 43°26' E 007°16'6 9.6
2017-Jul-20 17:21N 43°32' E 007°17'3 9.7
2017-Jul-20 17:00N 43°36' E 007°18'5 0.5
2017-Jul-20 05:51N 43°41' E 007°19'412.5
2017-Jul-20 05:30N 43°37' E 007°17'917.4
2017-Jul-20 05:00N 43°28' E 007°13'917.8
2017-Jul-20 04:30N 43°20' E 007°09'917.4
2017-Jul-20 04:00N 43°12' E 007°05'918.4
2017-Jul-20 03:30N 43°04' E 006°57'816.7
2017-Jul-20 03:00N 42°58' E 006°51'916.9
2017-Jul-20 02:30N 42°51' E 006°44'917.6
2017-Jul-20 02:00N 42°45' E 006°35'917.6
2017-Jul-20 01:30N 42°39' E 006°26'918.2
2017-Jul-20 01:00N 42°34' E 006°16'1120.2
2017-Jul-20 00:28N 42°27' E 006°05'920.3
2017-Jul-20 00:01N 42°21' E 005°55'1020.6
2017-Jul-19 23:31N 42°14' E 005°44'1220.5
2017-Jul-19 22:56N 42°07' E 005°32'820.1
2017-Jul-19 22:30N 42°01' E 005°23'1020.1
2017-Jul-19 21:59N 41°54' E 005°13'1020.2
2017-Jul-19 21:30N 41°48' E 005°03'1120.4
2017-Jul-19 20:59N 41°41' E 004°52'1020.4
2017-Jul-19 20:30N 41°35' E 004°42'1020.2
2017-Jul-19 20:01N 41°28' E 004°32'1020.4
2017-Jul-19 19:30N 41°22' E 004°21'1020.8
2017-Jul-19 19:01N 41°15' E 004°11'1020.8
2017-Jul-19 18:31N 41°08' E 004°00'1120.7
2017-Jul-19 17:58N 41°01' E 003°49'920.5
2017-Jul-19 17:31N 40°55' E 003°39'1020.5
2017-Jul-19 17:00N 40°48' E 003°29'1020.4
2017-Jul-19 16:30N 40°42' E 003°18'1020.2
2017-Jul-19 16:01N 40°35' E 003°08'1020.2
2017-Jul-19 15:30N 40°29' E 002°58'1020.3
2017-Jul-19 15:01N 40°22' E 002°48'1020.6
2017-Jul-19 14:31N 40°16' E 002°38'1020.8
2017-Jul-19 14:00N 40°09' E 002°27'1020.7
2017-Jul-19 13:30N 40°02' E 002°17'1020.6
2017-Jul-19 13:00N 39°56' E 002°07'1020.6
2017-Jul-19 12:31N 39°49' E 001°56'1020.3
2017-Jul-19 12:00N 39°42' E 001°46'1020.3
2017-Jul-19 11:30N 39°36' E 001°36'1119.9
2017-Jul-19 10:57N 39°29' E 001°25'919.6
2017-Jul-19 10:30N 39°23' E 001°16'1419.4
2017-Jul-19 09:46N 39°14' E 001°02'1319.2
2017-Jul-19 09:04N 39°04' E 000°51'520.3
2017-Jul-19 08:50N 38°60' E 000°48'34513.0
2017-Jul-18 06:12N 35°59' W 005°23'519.3
2017-Jul-18 05:55N 35°57' W 005°29'13317.3
2017-Jul-17 22:14N 36°19' W 008°12'1117.3
2017-Jul-17 21:34N 36°23' W 008°26'217.3
2017-Jul-17 21:28N 36°23' W 008°28'1817.7
2017-Jul-17 20:27N 36°28' W 008°49'920.6
2017-Jul-17 20:01N 36°30' W 009°00'1020.7
2017-Jul-17 19:30N 36°33' W 009°13'1419.9
2017-Jul-17 18:47N 36°43' W 009°26'3620.1
2017-Jul-17 17:00N 37°17' W 009°40'1420.8
2017-Jul-17 16:21N 37°30' W 009°45'1920.7
2017-Jul-17 15:24N 37°49' W 009°50'821.0
2017-Jul-17 15:01N 37°57' W 009°53'1121.1
2017-Jul-17 14:30N 38°07' W 009°56'1121.3
2017-Jul-17 13:59N 38°18' W 009°59'1120.7
2017-Jul-17 13:27N 38°29' W 010°01'920.6
2017-Jul-17 13:01N 38°38' W 010°04'1020.9
2017-Jul-17 12:30N 38°48' W 010°05'1020.5
2017-Jul-17 12:00N 38°59' W 010°05'1020.8
2017-Jul-17 11:30N 39°09' W 010°05'1320.4
2017-Jul-17 10:52N 39°22' W 010°05'2820.7
2017-Jul-17 09:31N 39°50' W 010°04'020.9
2017-Jul-17 09:30N 39°50' W 010°04'3320.6
2017-Jul-17 07:54N 40°23' W 010°05'8520.7
2017-Jul-17 03:48N 41°48' W 010°04'720.8
2017-Jul-17 03:29N 41°55' W 010°04'56619.4
2017-Jul-15 22:18N 49°57' W 002°59'618.6
2017-Jul-15 21:58N 50°00' W 002°51'4219.3
2017-Jul-15 19:47N 50°17' W 001°50'620.6
2017-Jul-15 19:30N 50°19' W 001°42'1320.7
2017-Jul-15 18:54N 50°25' W 001°25'2318.9
2017-Jul-15 17:41N 50°41' W 000°58'211.2
2017-Jul-15 17:30N 50°43' W 000°59'815.5
2017-Jul-15 17:00N 50°46' W 001°10'510.8
2017-Jul-15 16:30N 50°48' W 001°18'4 7.6
2017-Jul-15 16:01N 50°51' W 001°21'4 7.0
2017-Jul-15 15:30N 50°54' W 001°25'0 0.0
2017-Jul-15 09:50N 50°54' W 001°25'0 0.0
2017-Jul-15 09:29N 50°54' W 001°25'0 0.0
2017-Jul-15 08:59N 50°54' W 001°25'0 0.0
2017-Jul-15 08:23N 50°54' W 001°25'3 0.6
2017-Jul-15 03:45N 50°52' W 001°22'210.1
2017-Jul-15 03:31N 50°50' W 001°19'4 7.6
2017-Jul-15 03:00N 50°47' W 001°17'713.6
2017-Jul-15 02:30N 50°45' W 001°07'613.0
2017-Jul-15 02:00N 50°42' W 000°58'612.1
2017-Jul-15 01:30N 50°36' W 000°58'2012.9
2017-Jul-14 23:59N 50°17' W 000°51'613.2
2017-Jul-14 23:31N 50°10' W 000°49'713.2
2017-Jul-14 23:00N 50°04' W 000°46'713.3
2017-Jul-14 22:30N 49°57' W 000°44'612.5
2017-Jul-14 22:00N 49°52' W 000°40'612.5
2017-Jul-14 21:30N 49°47' W 000°33'2312.7
2017-Jul-14 19:40N 49°32' W 000°06'512.9
2017-Jul-14 19:17N 49°30' E 000°01'312.2
2017-Jul-14 19:00N 49°29' E 000°06'0 0.4
2017-Jul-14 18:30N 49°29' E 000°06'0 0.0
2017-Jul-14 18:00N 49°29' E 000°06'0 0.0
2017-Jul-14 17:30N 49°29' E 000°06'0 0.0
2017-Jul-14 17:00N 49°29' E 000°06'0 0.0
2017-Jul-14 16:30N 49°29' E 000°06'0 0.0
2017-Jul-14 16:00N 49°29' E 000°06'0 0.0
2017-Jul-14 15:30N 49°29' E 000°06'0 0.0
2017-Jul-14 15:00N 49°29' E 000°06'0 0.0
2017-Jul-14 14:30N 49°29' E 000°06'0 0.0
2017-Jul-14 13:57N 49°29' E 000°06'0 0.0
2017-Jul-14 13:30N 49°29' E 000°06'0 0.0
2017-Jul-14 13:00N 49°29' E 000°06'0 0.0
2017-Jul-14 12:30N 49°29' E 000°06'0 0.0
2017-Jul-14 12:00N 49°29' E 000°06'0 0.0
2017-Jul-14 11:30N 49°29' E 000°06'0 0.0
2017-Jul-14 11:00N 49°29' E 000°06'0 0.0
2017-Jul-14 10:30N 49°29' E 000°06'0 0.0
2017-Jul-14 10:00N 49°29' E 000°06'0 0.0
2017-Jul-14 09:30N 49°29' E 000°06'0 0.0
2017-Jul-14 09:00N 49°29' E 000°06'0 0.0
2017-Jul-14 08:30N 49°29' E 000°06'0 0.0
2017-Jul-14 08:00N 49°29' E 000°06'0 0.0
2017-Jul-14 07:30N 49°29' E 000°06'0 0.0
2017-Jul-14 07:00N 49°29' E 000°06'0 0.0
2017-Jul-14 06:30N 49°29' E 000°06'0 0.0
2017-Jul-14 06:00N 49°29' E 000°06'0 0.0
2017-Jul-14 05:24N 49°29' E 000°06'0 0.0
2017-Jul-14 05:00N 49°29' E 000°06'0 0.5
2017-Jul-14 04:30N 49°29' E 000°06'612.0
2017-Jul-14 04:00N 49°31' W 000°03'510.7
2017-Jul-14 03:31N 49°35' W 000°07'816.7
2017-Jul-14 03:01N 49°43' W 000°10'3713.4
2017-Jul-14 00:16N 50°13' E 000°23'312.6
2017-Jul-14 00:00N 50°16' E 000°26'812.6
2017-Jul-13 23:21N 50°23' E 000°32'513.8
2017-Jul-13 23:00N 50°28' E 000°32'612.5
2017-Jul-13 22:30N 50°34' E 000°36'713.4
2017-Jul-13 22:00N 50°38' E 000°44'816.5
2017-Jul-13 21:31N 50°43' E 000°55'918.2
2017-Jul-13 21:01N 50°48' E 001°07'1218.7
2017-Jul-13 20:21N 50°56' E 001°20'719.1
2017-Jul-13 20:01N 51°01' E 001°27'918.2
2017-Jul-13 19:30N 51°08' E 001°37'917.4
2017-Jul-13 19:01N 51°14' E 001°47'816.8
2017-Jul-13 18:31N 51°22' E 001°53'816.3
2017-Jul-13 18:01N 51°28' E 002°01'816.3
2017-Jul-13 17:30N 51°34' E 002°10'26516.1
2017-Jul-13 01:01N 54°00' E 008°15'016.0
2017-Jul-13 01:00N 54°00' E 008°15'815.6
2017-Jul-13 00:30N 53°59' E 008°28'813.7
2017-Jul-12 23:56N 53°55' E 008°40'511.8
2017-Jul-12 23:30N 53°51' E 008°45'714.7
2017-Jul-12 23:00N 53°51' E 008°58'815.3
2017-Jul-12 22:30N 53°53' E 009°10'815.2
2017-Jul-12 22:00N 53°50' E 009°22'815.1
2017-Jul-12 21:30N 53°43' E 009°28'713.6
2017-Jul-12 21:00N 53°37' E 009°33'612.9
2017-Jul-12 20:30N 53°34' E 009°43'611.1
2017-Jul-12 20:00N 53°33' E 009°52'3 6.7
2017-Jul-12 19:30N 53°32' E 009°58'0 0.2
2017-Jul-12 19:00N 53°32' E 009°58'0 0.0
2017-Jul-12 18:30N 53°32' E 009°58'0 0.0
2017-Jul-12 18:00N 53°32' E 009°58'0 0.0
2017-Jul-12 17:30N 53°32' E 009°58'0 0.0
2017-Jul-12 17:00N 53°32' E 009°58'0 0.0
2017-Jul-12 16:30N 53°32' E 009°58'0 0.0
2017-Jul-12 16:00N 53°32' E 009°58'0 0.0
2017-Jul-12 15:30N 53°32' E 009°58'0 0.0
2017-Jul-12 15:00N 53°32' E 009°58'0 0.0
2017-Jul-12 14:00N 53°32' E 009°58'0 0.0
2017-Jul-12 13:30N 53°32' E 009°58'0 0.0
2017-Jul-12 13:00N 53°32' E 009°58'0 0.0
2017-Jul-12 12:30N 53°32' E 009°58'0 0.0
2017-Jul-12 12:00N 53°32' E 009°58'0 0.0
2017-Jul-12 11:30N 53°32' E 009°58'0 0.0
2017-Jul-12 11:00N 53°32' E 009°58'0 0.0
2017-Jul-12 10:30N 53°32' E 009°58'0 0.0
2017-Jul-12 10:00N 53°32' E 009°58'0 0.0
2017-Jul-12 09:30N 53°32' E 009°58'0 0.0
2017-Jul-12 09:00N 53°32' E 009°58'0 0.0
2017-Jul-12 08:30N 53°32' E 009°58'0 0.0
2017-Jul-12 08:00N 53°32' E 009°58'0 0.0
2017-Jul-12 07:30N 53°32' E 009°58'0 0.0
2017-Jul-12 07:00N 53°32' E 009°58'0 0.0
2017-Jul-12 06:30N 53°32' E 009°58'0 0.0
2017-Jul-12 05:57N 53°32' E 009°58'0 0.0
2017-Jul-12 05:30N 53°32' E 009°58'0 0.0
2017-Jul-12 05:00N 53°32' E 009°58'0 0.0
2017-Jul-12 04:30N 53°32' E 009°58'1 2.1
2017-Jul-12 04:00N 53°32' E 009°56'4 7.9
2017-Jul-12 03:30N 53°33' E 009°50'  
Track history (hours):
 
Tides and Currents Weather Stations Pressure Air Temp Water Temp Dewpoint Dewpoint Depression Visibility Wind Speed Wind Dir Waves Ship Positions

Independence of the Seas

Last reported at 2017-Jul-22 03:09 UTC. Time now 2017-Jul-22 08:47 UTC.
Position N 41°20' E 002°44'.

Length 339 m; draft 8.8 m.

Type: Passenger vessel. MMSI: 309374000.

Date/timePositionNaut miles runAvg speedWind from/ knotsBaromVisibWave heightAir tempDewpointWater temp
2017-Jul-22 03:09N 41°20' E 002°44'714.9
2017-Jul-22 02:41N 41°24' E 002°51'314.9
2017-Jul-22 02:30N 41°25' E 002°55'814.8
2017-Jul-22 01:59N 41°29' E 003°04'714.6
2017-Jul-22 01:30N 41°32' E 003°12'714.5
2017-Jul-22 01:00N 41°36' E 003°20'5014.9
2017-Jul-21 21:37N 42°06' E 004°14'514.4
2017-Jul-21 21:18N 42°08' E 004°19'414.1
2017-Jul-21 21:00N 42°11' E 004°24'714.0
2017-Jul-21 20:30N 42°15' E 004°32'713.8
2017-Jul-21 20:00N 42°19' E 004°39'1513.8
2017-Jul-21 18:55N 42°28' E 004°56'1014.0
2017-Jul-21 18:12N 42°34' E 005°06'4812.2
2017-Jul-21 14:17N 43°06' E 005°55'1 1.1
2017-Jul-21 13:16N 43°06' E 005°54'0 0.0
2017-Jul-21 09:28N 43°06' E 005°54'0 0.0
2017-Jul-21 07:16N 43°06' E 005°54'0 0.0
2017-Jul-21 05:52N 43°06' E 005°54'0 0.0
2017-Jul-21 05:25N 43°06' E 005°54'0 0.0
2017-Jul-21 05:00N 43°06' E 005°54'1 2.7
2017-Jul-21 04:31N 43°05' E 005°55'18 8.1
2017-Jul-21 02:13N 42°49' E 006°07'2 8.9
2017-Jul-21 01:57N 42°47' E 006°08'7 8.7
2017-Jul-21 01:12N 42°43' E 006°16'4 9.8
2017-Jul-21 00:49N 42°43' E 006°21'310.0
2017-Jul-21 00:31N 42°43' E 006°25'37 8.9
2017-Jul-20 20:18N 43°07' E 007°03'3 8.9
2017-Jul-20 19:59N 43°10' E 007°06'6 9.2
2017-Jul-20 19:18N 43°15' E 007°11'5 9.7
2017-Jul-20 18:50N 43°18' E 007°15'3 9.5
2017-Jul-20 18:30N 43°21' E 007°16'5 9.7
2017-Jul-20 18:00N 43°26' E 007°16'6 9.6
2017-Jul-20 17:21N 43°32' E 007°17'3 9.7
2017-Jul-20 17:00N 43°36' E 007°18'5 0.5
2017-Jul-20 05:51N 43°41' E 007°19'412.5
2017-Jul-20 05:30N 43°37' E 007°17'917.4
2017-Jul-20 05:00N 43°28' E 007°13'917.8
2017-Jul-20 04:30N 43°20' E 007°09'917.4
2017-Jul-20 04:00N 43°12' E 007°05'918.4
2017-Jul-20 03:30N 43°04' E 006°57'816.7
2017-Jul-20 03:00N 42°58' E 006°51'916.9
2017-Jul-20 02:30N 42°51' E 006°44'917.6
2017-Jul-20 02:00N 42°45' E 006°35'917.6
2017-Jul-20 01:30N 42°39' E 006°26'918.2
2017-Jul-20 01:00N 42°34' E 006°16'1120.2
2017-Jul-20 00:28N 42°27' E 006°05'920.3
2017-Jul-20 00:01N 42°21' E 005°55'1020.6
2017-Jul-19 23:31N 42°14' E 005°44'1220.5
2017-Jul-19 22:56N 42°07' E 005°32'820.1
2017-Jul-19 22:30N 42°01' E 005°23'1020.1
2017-Jul-19 21:59N 41°54' E 005°13'1020.2
2017-Jul-19 21:30N 41°48' E 005°03'1120.4
2017-Jul-19 20:59N 41°41' E 004°52'1020.4
2017-Jul-19 20:30N 41°35' E 004°42'1020.2
2017-Jul-19 20:01N 41°28' E 004°32'1020.4
2017-Jul-19 19:30N 41°22' E 004°21'1020.8
2017-Jul-19 19:01N 41°15' E 004°11'1020.8
2017-Jul-19 18:31N 41°08' E 004°00'1120.7
2017-Jul-19 17:58N 41°01' E 003°49'920.5
2017-Jul-19 17:31N 40°55' E 003°39'1020.5
2017-Jul-19 17:00N 40°48' E 003°29'1020.4
2017-Jul-19 16:30N 40°42' E 003°18'1020.2
2017-Jul-19 16:01N 40°35' E 003°08'1020.2
2017-Jul-19 15:30N 40°29' E 002°58'1020.3
2017-Jul-19 15:01N 40°22' E 002°48'1020.6
2017-Jul-19 14:31N 40°16' E 002°38'1020.8
2017-Jul-19 14:00N 40°09' E 002°27'1020.7
2017-Jul-19 13:30N 40°02' E 002°17'1020.6
2017-Jul-19 13:00N 39°56' E 002°07'1020.6
2017-Jul-19 12:31N 39°49' E 001°56'1020.3
2017-Jul-19 12:00N 39°42' E 001°46'1020.3
2017-Jul-19 11:30N 39°36' E 001°36'1119.9
2017-Jul-19 10:57N 39°29' E 001°25'919.6
2017-Jul-19 10:30N 39°23' E 001°16'1419.4
2017-Jul-19 09:46N 39°14' E 001°02'1319.2
2017-Jul-19 09:04N 39°04' E 000°51'520.3
2017-Jul-19 08:50N 38°60' E 000°48'34513.0
2017-Jul-18 06:12N 35°59' W 005°23'519.3
2017-Jul-18 05:55N 35°57' W 005°29'13317.3
2017-Jul-17 22:14N 36°19' W 008°12'1117.3
2017-Jul-17 21:34N 36°23' W 008°26'217.3
2017-Jul-17 21:28N 36°23' W 008°28'1817.7
2017-Jul-17 20:27N 36°28' W 008°49'920.6
2017-Jul-17 20:01N 36°30' W 009°00'1020.7
2017-Jul-17 19:30N 36°33' W 009°13'1419.9
2017-Jul-17 18:47N 36°43' W 009°26'3620.1
2017-Jul-17 17:00N 37°17' W 009°40'1420.8
2017-Jul-17 16:21N 37°30' W 009°45'1920.7
2017-Jul-17 15:24N 37°49' W 009°50'821.0
2017-Jul-17 15:01N 37°57' W 009°53'1121.1
2017-Jul-17 14:30N 38°07' W 009°56'1121.3
2017-Jul-17 13:59N 38°18' W 009°59'1120.7
2017-Jul-17 13:27N 38°29' W 010°01'920.6
2017-Jul-17 13:01N 38°38' W 010°04'1020.9
2017-Jul-17 12:30N 38°48' W 010°05'1020.5
2017-Jul-17 12:00N 38°59' W 010°05'1020.8
2017-Jul-17 11:30N 39°09' W 010°05'1320.4
2017-Jul-17 10:52N 39°22' W 010°05'2820.7
2017-Jul-17 09:31N 39°50' W 010°04'020.9
2017-Jul-17 09:30N 39°50' W 010°04'3320.6
2017-Jul-17 07:54N 40°23' W 010°05'8520.7
2017-Jul-17 03:48N 41°48' W 010°04'720.8
2017-Jul-17 03:29N 41°55' W 010°04'56619.4
2017-Jul-15 22:18N 49°57' W 002°59'618.6
2017-Jul-15 21:58N 50°00' W 002°51'4219.3
2017-Jul-15 19:47N 50°17' W 001°50'620.6
2017-Jul-15 19:30N 50°19' W 001°42'1320.7
2017-Jul-15 18:54N 50°25' W 001°25'2318.9
2017-Jul-15 17:41N 50°41' W 000°58'211.2
2017-Jul-15 17:30N 50°43' W 000°59'815.5
2017-Jul-15 17:00N 50°46' W 001°10'510.8
2017-Jul-15 16:30N 50°48' W 001°18'4 7.6
2017-Jul-15 16:01N 50°51' W 001°21'4 7.0
2017-Jul-15 15:30N 50°54' W 001°25'0 0.0
2017-Jul-15 09:50N 50°54' W 001°25'0 0.0
2017-Jul-15 09:29N 50°54' W 001°25'0 0.0
2017-Jul-15 08:59N 50°54' W 001°25'0 0.0
2017-Jul-15 08:23N 50°54' W 001°25'3 0.6
2017-Jul-15 03:45N 50°52' W 001°22'210.1
2017-Jul-15 03:31N 50°50' W 001°19'4 7.6
2017-Jul-15 03:00N 50°47' W 001°17'713.6
2017-Jul-15 02:30N 50°45' W 001°07'613.0
2017-Jul-15 02:00N 50°42' W 000°58'612.1
2017-Jul-15 01:30N 50°36' W 000°58'2012.9
2017-Jul-14 23:59N 50°17' W 000°51'613.2
2017-Jul-14 23:31N 50°10' W 000°49'713.2
2017-Jul-14 23:00N 50°04' W 000°46'713.3
2017-Jul-14 22:30N 49°57' W 000°44'612.5
2017-Jul-14 22:00N 49°52' W 000°40'612.5
2017-Jul-14 21:30N 49°47' W 000°33'2312.7
2017-Jul-14 19:40N 49°32' W 000°06'512.9
2017-Jul-14 19:17N 49°30' E 000°01'312.2
2017-Jul-14 19:00N 49°29' E 000°06'0 0.4
2017-Jul-14 18:30N 49°29' E 000°06'0 0.0
2017-Jul-14 18:00N 49°29' E 000°06'0 0.0
2017-Jul-14 17:30N 49°29' E 000°06'0 0.0
2017-Jul-14 17:00N 49°29' E 000°06'0 0.0
2017-Jul-14 16:30N 49°29' E 000°06'0 0.0
2017-Jul-14 16:00N 49°29' E 000°06'0 0.0
2017-Jul-14 15:30N 49°29' E 000°06'0 0.0
2017-Jul-14 15:00N 49°29' E 000°06'0 0.0
2017-Jul-14 14:30N 49°29' E 000°06'0 0.0
2017-Jul-14 13:57N 49°29' E 000°06'0 0.0
2017-Jul-14 13:30N 49°29' E 000°06'0 0.0
2017-Jul-14 13:00N 49°29' E 000°06'0 0.0
2017-Jul-14 12:30N 49°29' E 000°06'0 0.0
2017-Jul-14 12:00N 49°29' E 000°06'0 0.0
2017-Jul-14 11:30N 49°29' E 000°06'0 0.0
2017-Jul-14 11:00N 49°29' E 000°06'0 0.0
2017-Jul-14 10:30N 49°29' E 000°06'0 0.0
2017-Jul-14 10:00N 49°29' E 000°06'0 0.0
2017-Jul-14 09:30N 49°29' E 000°06'0 0.0
2017-Jul-14 09:00N 49°29' E 000°06'0 0.0
2017-Jul-14 08:30N 49°29' E 000°06'0 0.0
2017-Jul-14 08:00N 49°29' E 000°06'0 0.0
2017-Jul-14 07:30N 49°29' E 000°06'0 0.0
2017-Jul-14 07:00N 49°29' E 000°06'0 0.0
2017-Jul-14 06:30N 49°29' E 000°06'0 0.0
2017-Jul-14 06:00N 49°29' E 000°06'0 0.0
2017-Jul-14 05:24N 49°29' E 000°06'0 0.0
2017-Jul-14 05:00N 49°29' E 000°06'0 0.5
2017-Jul-14 04:30N 49°29' E 000°06'612.0
2017-Jul-14 04:00N 49°31' W 000°03'510.7
2017-Jul-14 03:31N 49°35' W 000°07'816.7
2017-Jul-14 03:01N 49°43' W 000°10'3713.4
2017-Jul-14 00:16N 50°13' E 000°23'312.6
2017-Jul-14 00:00N 50°16' E 000°26'812.6
2017-Jul-13 23:21N 50°23' E 000°32'513.8
2017-Jul-13 23:00N 50°28' E 000°32'612.5
2017-Jul-13 22:30N 50°34' E 000°36'713.4
2017-Jul-13 22:00N 50°38' E 000°44'816.5
2017-Jul-13 21:31N 50°43' E 000°55'918.2
2017-Jul-13 21:01N 50°48' E 001°07'1218.7
2017-Jul-13 20:21N 50°56' E 001°20'719.1
2017-Jul-13 20:01N 51°01' E 001°27'918.2
2017-Jul-13 19:30N 51°08' E 001°37'917.4
2017-Jul-13 19:01N 51°14' E 001°47'816.8
2017-Jul-13 18:31N 51°22' E 001°53'816.3
2017-Jul-13 18:01N 51°28' E 002°01'816.3
2017-Jul-13 17:30N 51°34' E 002°10'26516.1
2017-Jul-13 01:01N 54°00' E 008°15'016.0
2017-Jul-13 01:00N 54°00' E 008°15'815.6
2017-Jul-13 00:30N 53°59' E 008°28'813.7
2017-Jul-12 23:56N 53°55' E 008°40'511.8
2017-Jul-12 23:30N 53°51' E 008°45'714.7
2017-Jul-12 23:00N 53°51' E 008°58'815.3
2017-Jul-12 22:30N 53°53' E 009°10'815.2
2017-Jul-12 22:00N 53°50' E 009°22'815.1
2017-Jul-12 21:30N 53°43' E 009°28'713.6
2017-Jul-12 21:00N 53°37' E 009°33'612.9
2017-Jul-12 20:30N 53°34' E 009°43'611.1
2017-Jul-12 20:00N 53°33' E 009°52'3 6.7
2017-Jul-12 19:30N 53°32' E 009°58'0 0.2
2017-Jul-12 19:00N 53°32' E 009°58'0 0.0
2017-Jul-12 18:30N 53°32' E 009°58'0 0.0
2017-Jul-12 18:00N 53°32' E 009°58'0 0.0
2017-Jul-12 17:30N 53°32' E 009°58'0 0.0
2017-Jul-12 17:00N 53°32' E 009°58'0 0.0
2017-Jul-12 16:30N 53°32' E 009°58'0 0.0
2017-Jul-12 16:00N 53°32' E 009°58'0 0.0
2017-Jul-12 15:30N 53°32' E 009°58'0 0.0
2017-Jul-12 15:00N 53°32' E 009°58'0 0.0
2017-Jul-12 14:00N 53°32' E 009°58'0 0.0
2017-Jul-12 13:30N 53°32' E 009°58'0 0.0
2017-Jul-12 13:00N 53°32' E 009°58'0 0.0
2017-Jul-12 12:30N 53°32' E 009°58'0 0.0
2017-Jul-12 12:00N 53°32' E 009°58'0 0.0
2017-Jul-12 11:30N 53°32' E 009°58'0 0.0
2017-Jul-12 11:00N 53°32' E 009°58'0 0.0
2017-Jul-12 10:30N 53°32' E 009°58'0 0.0
2017-Jul-12 10:00N 53°32' E 009°58'0 0.0
2017-Jul-12 09:30N 53°32' E 009°58'0 0.0
2017-Jul-12 09:00N 53°32' E 009°58'0 0.0
2017-Jul-12 08:30N 53°32' E 009°58'0 0.0
2017-Jul-12 08:00N 53°32' E 009°58'0 0.0
2017-Jul-12 07:30N 53°32' E 009°58'0 0.0
2017-Jul-12 07:00N 53°32' E 009°58'0 0.0
2017-Jul-12 06:30N 53°32' E 009°58'0 0.0
2017-Jul-12 05:57N 53°32' E 009°58'0 0.0
2017-Jul-12 05:30N 53°32' E 009°58'0 0.0
2017-Jul-12 05:00N 53°32' E 009°58'0 0.0
2017-Jul-12 04:30N 53°32' E 009°58'1 2.1
2017-Jul-12 04:00N 53°32' E 009°56'4 7.9
2017-Jul-12 03:30N 53°33' E 009°50'  

Dump ship's entire track history